Overview Statistics Trail Chart Weather Telemetry Raw packets
 

This is the latest recevied weather packets stored in our database for station/object KD8DNS. If no packets are shown the sender has not sent any weather packets the latest 10 day(s).

<< 99 100 101 102 103 104 105 >>
Time Temp. Humidity Pressure Rain* Wind** Luminosity Snow
1787926878 26.11° C 69% 1022.8 hPa 0 mm - 389 W/m² -
1787926572 25.56° C 73% 1022.5 hPa 0 mm - 337 W/m² -
1787926271 25.56° C 73% 1022.8 hPa 0 mm - 337 W/m² -
1787925960 25.56° C 74% 1022.5 hPa 0 mm - 371 W/m² -
1787925655 25° C 73% 1022.5 hPa 0 mm - 427 W/m² -
1787925350 25° C 75% 1022.5 hPa 0 mm - 425 W/m² -
1787925049 25° C 75% 1022.5 hPa 0 mm - 408 W/m² -
1787924744 24.44° C 76% 1022.3 hPa 0 mm - 337 W/m² -
1787924443 24.44° C 77% 1022.6 hPa 0 mm - 332 W/m² -
1787924138 23.89° C 78% 1022.5 hPa 0 mm - 317 W/m² -
1787923832 23.33° C 78% 1022.5 hPa 0 mm - 278 W/m² -
1787923527 23.33° C 78% 1022.4 hPa 0 mm - 254 W/m² -
1787923223 22.78° C 79% 1022.5 hPa 0 mm - 251 W/m² -
1787922919 22.78° C 79% 1022.6 hPa 0 mm - 258 W/m² -
1787922617 22.22° C 82% 1022.4 hPa 0 mm - 255 W/m² -
1787922317 21.67° C 82% 1022.4 hPa 0 mm - 221 W/m² -
1787922014 21.11° C 84% 1022.5 hPa 0 mm - 199 W/m² -
1787921709 21.11° C 85% 1022.2 hPa 0 mm - 179 W/m² -
1787921409 20.56° C 86% 1022.3 hPa 0 mm - 165 W/m² -
1787921104 20° C 88% 1022.3 hPa 0 mm - 150 W/m² -
1787920804 19.44° C 89% 1022.2 hPa 0 mm - 147 W/m² -
1787920499 18.89° C 91% 1022.4 hPa 0 mm - 115 W/m² -
1787920196 18.89° C 94% 1022.2 hPa 0 mm - 88 W/m² -
1787919891 18.33° C 95% 1022.2 hPa 0 mm - 69 W/m² -
1787919590 17.78° C 96% 1022.3 hPa 0 mm - 41 W/m² -

* Rain latest hour (hover to see other rain measurements)
** Current wind speed in m/s (hover to see current wind gust speed)